{"data":{"norad_id":69351,"intl_designator":"2026-122Y","name":"STARLINK-37549","alt_names":[],"object_type":"PAYLOAD","status":"ACTIVE","operator":null,"country":"US","launch_date":"2026-06-03","launch_site_code":"AFWTR","launch_vehicle":null,"mission":null,"orbit_class":"UNKNOWN","rcs_meters":null,"size_class":null,"mass_kg":null,"dimensions":null,"purposes":["comms"],"wikipedia_slug":null,"has_3d_model":false,"image_url":null,"decayed_at":null,"tle_current":{"epoch":"2026-09-19T12:32:55.612032Z","epoch_age_seconds":113470,"freshness":"FRESH","line1":"1 69351U 26122Y   26262.52286588  .00009350  00000+0  29155-3 0  9990","line2":"2 69351  97.2820 291.2163 0001144  96.4651 263.6722 15.33447272 16653","mean_motion":15.33447272,"eccentricity":0.0001144,"inclination_deg":97.282,"raan_deg":291.2163,"arg_perigee_deg":96.4651,"mean_anomaly_deg":263.6722,"bstar":0.00029155,"rev_number":1665,"period_min":93.906065522675,"perigee_km":464.75349837433,"apogee_km":466.3193308516,"semimajor_km":6843.673414613,"source":"CELESTRAK","updated_at":"2026-09-20T09:00:44.163574Z"}}}